Data supplied by UK-AIR on 5/4/2008
All Data GMT hour ending 
Status: R =Ratified P=Provisional,P*=As supplied
,,Bromley Roadside,,,,,,,,,,,,,,,,,,,,,,,
Date,time,"Carbon monoxide",status,unit,"Nitric oxide",status,unit,"Nitrogen dioxide",status,unit,"Nitrogen oxides as nitrogen dioxide",status,unit
 
01-01-1998,01:00,2.8,R,mgm-3,169,R,ugm-3,61,R,ugm-3,319,R,ugm-3
01-01-1998,02:00,2.7,R,mgm-3,85,R,ugm-3,59,R,ugm-3,189,R,ugm-3
01-01-1998,03:00,1.5,R,mgm-3,39,R,ugm-3,46,R,ugm-3,105,R,ugm-3
01-01-1998,04:00,1.7,R,mgm-3,53,R,ugm-3,52,R,ugm-3,132,R,ugm-3
01-01-1998,05:00,0.8,R,mgm-3,25,R,ugm-3,34,R,ugm-3,73,R,ugm-3
01-01-1998,06:00,0.5,R,mgm-3,10,R,ugm-3,17,R,ugm-3,32,R,ugm-3
01-01-1998,07:00,0.7,R,mgm-3,20,R,ugm-3,31,R,ugm-3,61,R,ugm-3
01-01-1998,08:00,1.0,R,mgm-3,30,R,ugm-3,46,R,ugm-3,92,R,ugm-3
01-01-1998,09:00,0.8,R,mgm-3,44,R,ugm-3,46,R,ugm-3,113,R,ugm-3
01-01-1998,10:00,0.8,R,mgm-3,38,R,ugm-3,34,R,ugm-3,92,R,ugm-3
01-01-1998,11:00,0.8,R,mgm-3,33,R,ugm-3,36,R,ugm-3,86,R,ugm-3
01-01-1998,12:00,0.8,R,mgm-3,34,R,ugm-3,36,R,ugm-3,88,R,ugm-3
01-01-1998,13:00,1.3,R,mgm-3,50,R,ugm-3,44,R,ugm-3,120,R,ugm-3
01-01-1998,14:00,1.6,R,mgm-3,60,R,ugm-3,40,R,ugm-3,132,R,ugm-3
01-01-1998,15:00,1.4,R,mgm-3,49,R,ugm-3,40,R,ugm-3,115,R,ugm-3
01-01-1998,16:00,1.3,R,mgm-3,46,R,ugm-3,38,R,ugm-3,109,R,ugm-3
01-01-1998,17:00,1.3,R,mgm-3,40,R,ugm-3,34,R,ugm-3,96,R,ugm-3
01-01-1998,18:00,1.2,R,mgm-3,35,R,ugm-3,31,R,ugm-3,84,R,ugm-3
01-01-1998,19:00,0.9,R,mgm-3,20,R,ugm-3,21,R,ugm-3,52,R,ugm-3
01-01-1998,20:00,0.8,R,mgm-3,16,R,ugm-3,19,R,ugm-3,44,R,ugm-3
01-01-1998,21:00,0.8,R,mgm-3,15,R,ugm-3,17,R,ugm-3,40,R,ugm-3
01-01-1998,22:00,0.8,R,mgm-3,19,R,ugm-3,19,R,ugm-3,48,R,ugm-3
01-01-1998,23:00,0.9,R,mgm-3,19,R,ugm-3,25,R,ugm-3,53,R,ugm-3
01-01-1998,24:00,0.7,R,mgm-3,18,R,ugm-3,25,R,ugm-3,52,R,ugm-3
02-01-1998,01:00,0.5,R,mgm-3,8,R,ugm-3,11,R,ugm-3,23,R,ugm-3
02-01-1998,02:00,0.5,R,mgm-3,3,R,ugm-3,8,R,ugm-3,11,R,ugm-3
02-01-1998,03:00,0.3,R,mgm-3,3,R,ugm-3,6,R,ugm-3,10,R,ugm-3
02-01-1998,04:00,0.5,R,mgm-3,3,R,ugm-3,6,R,ugm-3,10,R,ugm-3
02-01-1998,05:00,0.5,R,mgm-3,3,R,ugm-3,4,R,ugm-3,8,R,ugm-3
02-01-1998,06:00,0.6,R,mgm-3,13,R,ugm-3,13,R,ugm-3,32,R,ugm-3
02-01-1998,07:00,0.7,R,mgm-3,31,R,ugm-3,31,R,ugm-3,78,R,ugm-3
02-01-1998,08:00,1.0,R,mgm-3,49,R,ugm-3,42,R,ugm-3,117,R,ugm-3
02-01-1998,09:00,1.4,R,mgm-3,59,R,ugm-3,46,R,ugm-3,136,R,ugm-3
02-01-1998,10:00,1.4,R,mgm-3,60,R,ugm-3,52,R,ugm-3,143,R,ugm-3
02-01-1998,11:00,1.9,R,mgm-3,76,R,ugm-3,59,R,ugm-3,176,R,ugm-3
02-01-1998,12:00,,,,109,R,ugm-3,78,R,ugm-3,244,R,ugm-3
02-01-1998,13:00,1.9,R,mgm-3,45,R,ugm-3,52,R,ugm-3,120,R,ugm-3
02-01-1998,14:00,2.4,R,mgm-3,64,R,ugm-3,61,R,ugm-3,159,R,ugm-3
02-01-1998,15:00,2.2,R,mgm-3,66,R,ugm-3,63,R,ugm-3,164,R,ugm-3
02-01-1998,16:00,2.0,R,mgm-3,54,R,ugm-3,53,R,ugm-3,136,R,ugm-3
02-01-1998,17:00,1.5,R,mgm-3,34,R,ugm-3,52,R,ugm-3,103,R,ugm-3
02-01-1998,18:00,1.5,R,mgm-3,31,R,ugm-3,52,R,ugm-3,99,R,ugm-3
02-01-1998,19:00,1.2,R,mgm-3,23,R,ugm-3,46,R,ugm-3,80,R,ugm-3
02-01-1998,20:00,1.0,R,mgm-3,24,R,ugm-3,40,R,ugm-3,76,R,ugm-3
02-01-1998,21:00,1.0,R,mgm-3,26,R,ugm-3,40,R,ugm-3,80,R,ugm-3
02-01-1998,22:00,1.0,R,mgm-3,41,R,ugm-3,36,R,ugm-3,99,R,ugm-3
02-01-1998,23:00,1.2,R,mgm-3,43,R,ugm-3,38,R,ugm-3,103,R,ugm-3
02-01-1998,24:00,1.3,R,mgm-3,51,R,ugm-3,40,R,ugm-3,118,R,ugm-3
03-01-1998,01:00,0.7,R,mgm-3,19,R,ugm-3,17,R,ugm-3,46,R,ugm-3
03-01-1998,02:00,0.6,R,mgm-3,8,R,ugm-3,13,R,ugm-3,25,R,ugm-3
03-01-1998,03:00,0.6,R,mgm-3,8,R,ugm-3,13,R,ugm-3,25,R,ugm-3
03-01-1998,04:00,0.3,R,mgm-3,4,R,ugm-3,6,R,ugm-3,11,R,ugm-3
03-01-1998,05:00,0.3,R,mgm-3,3,R,ugm-3,4,R,ugm-3,8,R,ugm-3
03-01-1998,06:00,0.5,R,mgm-3,8,R,ugm-3,8,R,ugm-3,19,R,ugm-3
03-01-1998,07:00,0.5,R,mgm-3,13,R,ugm-3,11,R,ugm-3,31,R,ugm-3
03-01-1998,08:00,0.7,R,mgm-3,16,R,ugm-3,17,R,ugm-3,42,R,ugm-3
03-01-1998,09:00,0.9,R,mgm-3,25,R,ugm-3,23,R,ugm-3,61,R,ugm-3
03-01-1998,10:00,1.4,R,mgm-3,54,R,ugm-3,36,R,ugm-3,118,R,ugm-3
03-01-1998,11:00,1.3,R,mgm-3,51,R,ugm-3,34,R,ugm-3,113,R,ugm-3
03-01-1998,12:00,1.0,R,mgm-3,21,R,ugm-3,29,R,ugm-3,61,R,ugm-3
03-01-1998,13:00,0.9,R,mgm-3,16,R,ugm-3,31,R,ugm-3,55,R,ugm-3
03-01-1998,14:00,0.9,R,mgm-3,18,R,ugm-3,23,R,ugm-3,50,R,ugm-3
03-01-1998,15:00,0.9,R,mgm-3,20,R,ugm-3,29,R,ugm-3,59,R,ugm-3
03-01-1998,16:00,1.5,R,mgm-3,39,R,ugm-3,42,R,ugm-3,101,R,ugm-3
03-01-1998,17:00,1.6,R,mgm-3,50,R,ugm-3,42,R,ugm-3,118,R,ugm-3
03-01-1998,18:00,1.2,R,mgm-3,30,R,ugm-3,31,R,ugm-3,76,R,ugm-3
03-01-1998,19:00,1.9,R,mgm-3,48,R,ugm-3,50,R,ugm-3,122,R,ugm-3
03-01-1998,20:00,0.9,R,mgm-3,20,R,ugm-3,29,R,ugm-3,59,R,ugm-3
03-01-1998,21:00,0.9,R,mgm-3,36,R,ugm-3,31,R,ugm-3,86,R,ugm-3
03-01-1998,22:00,1.3,R,mgm-3,43,R,ugm-3,38,R,ugm-3,103,R,ugm-3
03-01-1998,23:00,0.8,R,mgm-3,26,R,ugm-3,31,R,ugm-3,71,R,ugm-3
03-01-1998,24:00,1.4,R,mgm-3,59,R,ugm-3,40,R,ugm-3,130,R,ugm-3
04-01-1998,01:00,1.2,R,mgm-3,33,R,ugm-3,32,R,ugm-3,82,R,ugm-3
04-01-1998,02:00,0.5,R,mgm-3,6,R,ugm-3,10,R,ugm-3,19,R,ugm-3
04-01-1998,03:00,0.5,R,mgm-3,5,R,ugm-3,8,R,ugm-3,15,R,ugm-3
04-01-1998,04:00,0.3,R,mgm-3,3,R,ugm-3,4,R,ugm-3,8,R,ugm-3
04-01-1998,05:00,0.3,R,mgm-3,3,R,ugm-3,4,R,ugm-3,8,R,ugm-3
04-01-1998,06:00,0.3,R,mgm-3,4,R,ugm-3,6,R,ugm-3,11,R,ugm-3
04-01-1998,07:00,0.6,R,mgm-3,15,R,ugm-3,21,R,ugm-3,44,R,ugm-3
04-01-1998,08:00,0.6,R,mgm-3,23,R,ugm-3,21,R,ugm-3,55,R,ugm-3
04-01-1998,09:00,0.6,R,mgm-3,13,R,ugm-3,15,R,ugm-3,34,R,ugm-3
04-01-1998,10:00,0.7,R,mgm-3,16,R,ugm-3,15,R,ugm-3,40,R,ugm-3
04-01-1998,11:00,1.4,R,mgm-3,39,R,ugm-3,32,R,ugm-3,92,R,ugm-3
04-01-1998,12:00,1.6,R,mgm-3,54,R,ugm-3,48,R,ugm-3,130,R,ugm-3
04-01-1998,13:00,1.7,R,mgm-3,56,R,ugm-3,42,R,ugm-3,128,R,ugm-3
04-01-1998,14:00,1.6,R,mgm-3,45,R,ugm-3,38,R,ugm-3,107,R,ugm-3
04-01-1998,15:00,1.4,R,mgm-3,30,R,ugm-3,31,R,ugm-3,76,R,ugm-3
04-01-1998,16:00,1.2,R,mgm-3,28,R,ugm-3,29,R,ugm-3,71,R,ugm-3
04-01-1998,17:00,1.4,R,mgm-3,40,R,ugm-3,32,R,ugm-3,94,R,ugm-3
04-01-1998,18:00,1.4,R,mgm-3,30,R,ugm-3,25,R,ugm-3,71,R,ugm-3
04-01-1998,19:00,0.7,R,mgm-3,10,R,ugm-3,11,R,ugm-3,27,R,ugm-3
04-01-1998,20:00,0.6,R,mgm-3,5,R,ugm-3,10,R,ugm-3,17,R,ugm-3
04-01-1998,21:00,0.6,R,mgm-3,5,R,ugm-3,11,R,ugm-3,19,R,ugm-3
04-01-1998,22:00,0.5,R,mgm-3,3,R,ugm-3,10,R,ugm-3,13,R,ugm-3
04-01-1998,23:00,0.5,R,mgm-3,4,R,ugm-3,10,R,ugm-3,15,R,ugm-3
04-01-1998,24:00,0.5,R,mgm-3,3,R,ugm-3,6,R,ugm-3,10,R,ugm-3
05-01-1998,01:00,0.3,R,mgm-3,1,R,ugm-3,4,R,ugm-3,6,R,ugm-3
05-01-1998,02:00,0.3,R,mgm-3,1,R,ugm-3,2,R,ugm-3,4,R,ugm-3
05-01-1998,03:00,0.2,R,mgm-3,1,R,ugm-3,2,R,ugm-3,4,R,ugm-3
05-01-1998,04:00,0.2,R,mgm-3,1,R,ugm-3,2,R,ugm-3,4,R,ugm-3
05-01-1998,05:00,0.3,R,mgm-3,5,R,ugm-3,8,R,ugm-3,15,R,ugm-3
05-01-1998,06:00,0.6,R,mgm-3,23,R,ugm-3,23,R,ugm-3,57,R,ugm-3
05-01-1998,07:00,1.3,R,mgm-3,93,R,ugm-3,52,R,ugm-3,193,R,ugm-3
05-01-1998,08:00,3.6,R,mgm-3,181,R,ugm-3,71,R,ugm-3,348,R,ugm-3
05-01-1998,09:00,7.2,R,mgm-3,314,R,ugm-3,107,R,ugm-3,586,R,ugm-3
05-01-1998,10:00,4.8,R,mgm-3,254,R,ugm-3,88,R,ugm-3,476,R,ugm-3
05-01-1998,11:00,4.2,R,mgm-3,228,R,ugm-3,78,R,ugm-3,426,R,ugm-3
05-01-1998,12:00,1.7,R,mgm-3,80,R,ugm-3,65,R,ugm-3,187,R,ugm-3
05-01-1998,13:00,2.0,R,mgm-3,85,R,ugm-3,65,R,ugm-3,195,R,ugm-3
05-01-1998,14:00,2.7,R,mgm-3,119,R,ugm-3,61,R,ugm-3,243,R,ugm-3
05-01-1998,15:00,2.6,R,mgm-3,120,R,ugm-3,76,R,ugm-3,260,R,ugm-3
05-01-1998,16:00,2.1,R,mgm-3,110,R,ugm-3,63,R,ugm-3,231,R,ugm-3
05-01-1998,17:00,2.1,R,mgm-3,71,R,ugm-3,61,R,ugm-3,170,R,ugm-3
05-01-1998,18:00,1.7,R,mgm-3,35,R,ugm-3,53,R,ugm-3,107,R,ugm-3
05-01-1998,19:00,1.9,R,mgm-3,39,R,ugm-3,61,R,ugm-3,120,R,ugm-3
05-01-1998,20:00,1.6,R,mgm-3,51,R,ugm-3,71,R,ugm-3,149,R,ugm-3
05-01-1998,21:00,1.4,R,mgm-3,51,R,ugm-3,67,R,ugm-3,145,R,ugm-3
05-01-1998,22:00,1.2,R,mgm-3,36,R,ugm-3,59,R,ugm-3,115,R,ugm-3
05-01-1998,23:00,1.0,R,mgm-3,41,R,ugm-3,59,R,ugm-3,122,R,ugm-3
05-01-1998,24:00,0.8,R,mgm-3,15,R,ugm-3,52,R,ugm-3,74,R,ugm-3
06-01-1998,01:00,0.5,R,mgm-3,5,R,ugm-3,32,R,ugm-3,40,R,ugm-3
06-01-1998,02:00,0.5,R,mgm-3,1,R,ugm-3,21,R,ugm-3,23,R,ugm-3
06-01-1998,03:00,0.5,R,mgm-3,1,R,ugm-3,13,R,ugm-3,15,R,ugm-3
06-01-1998,04:00,0.3,R,mgm-3,1,R,ugm-3,17,R,ugm-3,19,R,ugm-3
06-01-1998,05:00,0.5,R,mgm-3,8,R,ugm-3,19,R,ugm-3,31,R,ugm-3
06-01-1998,06:00,0.9,R,mgm-3,53,R,ugm-3,36,R,ugm-3,117,R,ugm-3
06-01-1998,07:00,2.8,R,mgm-3,264,R,ugm-3,67,R,ugm-3,470,R,ugm-3
06-01-1998,08:00,12.4,R,mgm-3,724,R,ugm-3,48,R,ugm-3,1154,R,ugm-3
06-01-1998,09:00,18.6,R,mgm-3,,,,,,,,,
06-01-1998,10:00,12.1,R,mgm-3,764,R,ugm-3,53,R,ugm-3,1220,R,ugm-3
06-01-1998,11:00,8.7,R,mgm-3,546,R,ugm-3,101,R,ugm-3,936,R,ugm-3
06-01-1998,12:00,4.2,R,mgm-3,303,R,ugm-3,90,R,ugm-3,552,R,ugm-3
06-01-1998,13:00,3.8,R,mgm-3,271,R,ugm-3,80,R,ugm-3,495,R,ugm-3
06-01-1998,14:00,2.8,R,mgm-3,184,R,ugm-3,67,R,ugm-3,348,R,ugm-3
06-01-1998,15:00,2.6,R,mgm-3,180,R,ugm-3,76,R,ugm-3,351,R,ugm-3
06-01-1998,16:00,3.1,R,mgm-3,174,R,ugm-3,71,R,ugm-3,336,R,ugm-3
06-01-1998,17:00,3.9,R,mgm-3,203,R,ugm-3,69,R,ugm-3,378,R,ugm-3
06-01-1998,18:00,5.1,R,mgm-3,194,R,ugm-3,65,R,ugm-3,361,R,ugm-3
06-01-1998,19:00,2.2,R,mgm-3,79,R,ugm-3,53,R,ugm-3,174,R,ugm-3
06-01-1998,20:00,1.5,R,mgm-3,56,R,ugm-3,42,R,ugm-3,128,R,ugm-3
06-01-1998,21:00,1.0,R,mgm-3,34,R,ugm-3,32,R,ugm-3,84,R,ugm-3
06-01-1998,22:00,0.9,R,mgm-3,23,R,ugm-3,25,R,ugm-3,59,R,ugm-3
06-01-1998,23:00,0.9,R,mgm-3,28,R,ugm-3,27,R,ugm-3,69,R,ugm-3
06-01-1998,24:00,0.7,R,mgm-3,21,R,ugm-3,21,R,ugm-3,53,R,ugm-3
07-01-1998,01:00,0.5,R,mgm-3,9,R,ugm-3,13,R,ugm-3,27,R,ugm-3
07-01-1998,02:00,0.5,R,mgm-3,3,R,ugm-3,8,R,ugm-3,11,R,ugm-3
07-01-1998,03:00,0.3,R,mgm-3,1,R,ugm-3,4,R,ugm-3,6,R,ugm-3
07-01-1998,04:00,0.3,R,mgm-3,3,R,ugm-3,4,R,ugm-3,8,R,ugm-3
07-01-1998,05:00,0.5,R,mgm-3,3,R,ugm-3,6,R,ugm-3,10,R,ugm-3
07-01-1998,06:00,0.5,R,mgm-3,10,R,ugm-3,17,R,ugm-3,32,R,ugm-3
07-01-1998,07:00,0.9,R,mgm-3,39,R,ugm-3,40,R,ugm-3,99,R,ugm-3
07-01-1998,08:00,1.5,R,mgm-3,66,R,ugm-3,48,R,ugm-3,149,R,ugm-3
07-01-1998,09:00,2.0,R,mgm-3,85,R,ugm-3,61,R,ugm-3,191,R,ugm-3
07-01-1998,10:00,1.2,R,mgm-3,66,R,ugm-3,59,R,ugm-3,160,R,ugm-3
07-01-1998,11:00,1.0,R,mgm-3,56,R,ugm-3,48,R,ugm-3,134,R,ugm-3
07-01-1998,12:00,1.6,R,mgm-3,101,R,ugm-3,73,R,ugm-3,227,R,ugm-3
07-01-1998,13:00,2.0,R,mgm-3,113,R,ugm-3,80,R,ugm-3,252,R,ugm-3
07-01-1998,14:00,2.0,R,mgm-3,113,R,ugm-3,69,R,ugm-3,241,R,ugm-3
07-01-1998,15:00,2.7,R,mgm-3,155,R,ugm-3,73,R,ugm-3,309,R,ugm-3
07-01-1998,16:00,2.1,R,mgm-3,104,R,ugm-3,63,R,ugm-3,222,R,ugm-3
07-01-1998,17:00,2.9,R,mgm-3,139,R,ugm-3,67,R,ugm-3,279,R,ugm-3
07-01-1998,18:00,3.2,R,mgm-3,116,R,ugm-3,67,R,ugm-3,244,R,ugm-3
07-01-1998,19:00,2.2,R,mgm-3,83,R,ugm-3,61,R,ugm-3,187,R,ugm-3
07-01-1998,20:00,2.2,R,mgm-3,95,R,ugm-3,63,R,ugm-3,208,R,ugm-3
07-01-1998,21:00,1.7,R,mgm-3,69,R,ugm-3,53,R,ugm-3,159,R,ugm-3
07-01-1998,22:00,1.3,R,mgm-3,38,R,ugm-3,38,R,ugm-3,96,R,ugm-3
07-01-1998,23:00,0.9,R,mgm-3,35,R,ugm-3,36,R,ugm-3,90,R,ugm-3
07-01-1998,24:00,0.9,R,mgm-3,36,R,ugm-3,38,R,ugm-3,94,R,ugm-3
08-01-1998,01:00,0.5,R,mgm-3,13,R,ugm-3,15,R,ugm-3,34,R,ugm-3
08-01-1998,02:00,0.3,R,mgm-3,4,R,ugm-3,6,R,ugm-3,11,R,ugm-3
08-01-1998,03:00,0.3,R,mgm-3,3,R,ugm-3,6,R,ugm-3,10,R,ugm-3
08-01-1998,04:00,0.3,R,mgm-3,3,R,ugm-3,6,R,ugm-3,10,R,ugm-3
08-01-1998,05:00,0.3,R,mgm-3,5,R,ugm-3,11,R,ugm-3,19,R,ugm-3
08-01-1998,06:00,0.6,R,mgm-3,13,R,ugm-3,17,R,ugm-3,36,R,ugm-3
08-01-1998,07:00,0.9,R,mgm-3,56,R,ugm-3,44,R,ugm-3,130,R,ugm-3
08-01-1998,08:00,1.3,R,mgm-3,69,R,ugm-3,50,R,ugm-3,155,R,ugm-3
08-01-1998,09:00,1.3,R,mgm-3,50,R,ugm-3,46,R,ugm-3,122,R,ugm-3
08-01-1998,10:00,0.9,R,mgm-3,53,R,ugm-3,48,R,ugm-3,128,R,ugm-3
08-01-1998,11:00,1.0,R,mgm-3,43,R,ugm-3,42,R,ugm-3,107,R,ugm-3
08-01-1998,12:00,1.0,R,mgm-3,51,R,ugm-3,38,R,ugm-3,117,R,ugm-3
08-01-1998,13:00,1.0,R,mgm-3,46,R,ugm-3,42,R,ugm-3,113,R,ugm-3
08-01-1998,14:00,1.3,R,mgm-3,63,R,ugm-3,52,R,ugm-3,147,R,ugm-3
08-01-1998,15:00,1.5,R,mgm-3,70,R,ugm-3,52,R,ugm-3,159,R,ugm-3
08-01-1998,16:00,,,,,,,,,,,,
08-01-1998,17:00,,,,,,,,,,,,
08-01-1998,18:00,,,,,,,,,,,,
08-01-1998,19:00,,,,,,,,,,,,
08-01-1998,20:00,1.4,R,mgm-3,76,R,ugm-3,38,R,ugm-3,155,R,ugm-3
08-01-1998,21:00,1.5,R,mgm-3,64,R,ugm-3,42,R,ugm-3,139,R,ugm-3
08-01-1998,22:00,1.2,R,mgm-3,48,R,ugm-3,36,R,ugm-3,109,R,ugm-3
08-01-1998,23:00,0.7,R,mgm-3,29,R,ugm-3,27,R,ugm-3,71,R,ugm-3
08-01-1998,24:00,0.7,R,mgm-3,23,R,ugm-3,23,R,ugm-3,57,R,ugm-3
09-01-1998,01:00,0.5,R,mgm-3,11,R,ugm-3,15,R,ugm-3,32,R,ugm-3
09-01-1998,02:00,0.3,R,mgm-3,4,R,ugm-3,6,R,ugm-3,11,R,ugm-3
09-01-1998,03:00,0.3,R,mgm-3,3,R,ugm-3,8,R,ugm-3,11,R,ugm-3
09-01-1998,04:00,0.2,R,mgm-3,3,R,ugm-3,4,R,ugm-3,8,R,ugm-3
09-01-1998,05:00,0.3,R,mgm-3,3,R,ugm-3,4,R,ugm-3,8,R,ugm-3
09-01-1998,06:00,0.5,R,mgm-3,8,R,ugm-3,11,R,ugm-3,23,R,ugm-3
09-01-1998,07:00,0.6,R,mgm-3,30,R,ugm-3,31,R,ugm-3,76,R,ugm-3
09-01-1998,08:00,1.0,R,mgm-3,63,R,ugm-3,44,R,ugm-3,139,R,ugm-3
09-01-1998,09:00,1.5,R,mgm-3,90,R,ugm-3,46,R,ugm-3,183,R,ugm-3
09-01-1998,10:00,1.5,R,mgm-3,99,R,ugm-3,59,R,ugm-3,210,R,ugm-3
09-01-1998,11:00,1.0,R,mgm-3,78,R,ugm-3,48,R,ugm-3,166,R,ugm-3
09-01-1998,12:00,,,,,,,,,,,,
09-01-1998,13:00,1.4,R,mgm-3,158,R,ugm-3,71,R,ugm-3,311,R,ugm-3
09-01-1998,14:00,1.0,R,mgm-3,120,R,ugm-3,74,R,ugm-3,258,R,ugm-3
09-01-1998,15:00,0.9,R,mgm-3,106,R,ugm-3,73,R,ugm-3,235,R,ugm-3
09-01-1998,16:00,2.1,R,mgm-3,215,R,ugm-3,94,R,ugm-3,422,R,ugm-3
09-01-1998,17:00,3.4,R,mgm-3,300,R,ugm-3,109,R,ugm-3,567,R,ugm-3
09-01-1998,18:00,3.8,R,mgm-3,281,R,ugm-3,103,R,ugm-3,533,R,ugm-3
09-01-1998,19:00,2.9,R,mgm-3,258,R,ugm-3,103,R,ugm-3,497,R,ugm-3
09-01-1998,20:00,2.3,R,mgm-3,231,R,ugm-3,88,R,ugm-3,441,R,ugm-3
09-01-1998,21:00,2.4,R,mgm-3,255,R,ugm-3,86,R,ugm-3,476,R,ugm-3
09-01-1998,22:00,1.5,R,mgm-3,165,R,ugm-3,78,R,ugm-3,330,R,ugm-3
09-01-1998,23:00,1.0,R,mgm-3,126,R,ugm-3,69,R,ugm-3,262,R,ugm-3
09-01-1998,24:00,2.1,R,mgm-3,196,R,ugm-3,84,R,ugm-3,384,R,ugm-3
10-01-1998,01:00,1.3,R,mgm-3,140,R,ugm-3,76,R,ugm-3,290,R,ugm-3
10-01-1998,02:00,0.3,R,mgm-3,28,R,ugm-3,36,R,ugm-3,78,R,ugm-3
10-01-1998,03:00,0.5,R,mgm-3,33,R,ugm-3,40,R,ugm-3,90,R,ugm-3
10-01-1998,04:00,0.1,R,mgm-3,19,R,ugm-3,31,R,ugm-3,59,R,ugm-3
10-01-1998,05:00,0.1,R,mgm-3,14,R,ugm-3,27,R,ugm-3,48,R,ugm-3
10-01-1998,06:00,0.3,R,mgm-3,40,R,ugm-3,44,R,ugm-3,105,R,ugm-3
10-01-1998,07:00,0.7,R,mgm-3,76,R,ugm-3,50,R,ugm-3,166,R,ugm-3
10-01-1998,08:00,0.9,R,mgm-3,155,R,ugm-3,59,R,ugm-3,296,R,ugm-3
10-01-1998,09:00,4.2,R,mgm-3,311,R,ugm-3,78,R,ugm-3,554,R,ugm-3
10-01-1998,10:00,3.6,R,mgm-3,329,R,ugm-3,78,R,ugm-3,581,R,ugm-3
10-01-1998,11:00,3.2,R,mgm-3,304,R,ugm-3,74,R,ugm-3,539,R,ugm-3
10-01-1998,12:00,2.6,R,mgm-3,268,R,ugm-3,78,R,ugm-3,487,R,ugm-3
10-01-1998,13:00,2.6,R,mgm-3,226,R,ugm-3,92,R,ugm-3,437,R,ugm-3
10-01-1998,14:00,5.2,R,mgm-3,389,R,ugm-3,101,R,ugm-3,695,R,ugm-3
10-01-1998,15:00,4.1,R,mgm-3,343,R,ugm-3,82,R,ugm-3,605,R,ugm-3
10-01-1998,16:00,5.5,R,mgm-3,436,R,ugm-3,90,R,ugm-3,756,R,ugm-3
10-01-1998,17:00,7.3,R,mgm-3,524,R,ugm-3,90,R,ugm-3,890,R,ugm-3
10-01-1998,18:00,7.9,R,mgm-3,585,R,ugm-3,80,R,ugm-3,974,R,ugm-3
10-01-1998,19:00,7.9,R,mgm-3,566,R,ugm-3,52,R,ugm-3,917,R,ugm-3
10-01-1998,20:00,8.8,R,mgm-3,678,R,ugm-3,57,R,ugm-3,1093,R,ugm-3
10-01-1998,21:00,7.2,R,mgm-3,609,R,ugm-3,82,R,ugm-3,1012,R,ugm-3
10-01-1998,22:00,4.1,R,mgm-3,334,R,ugm-3,86,R,ugm-3,596,R,ugm-3
10-01-1998,23:00,4.6,R,mgm-3,453,R,ugm-3,80,R,ugm-3,772,R,ugm-3
10-01-1998,24:00,5.7,R,mgm-3,453,R,ugm-3,80,R,ugm-3,772,R,ugm-3
11-01-1998,01:00,4.8,R,mgm-3,439,R,ugm-3,73,R,ugm-3,743,R,ugm-3
11-01-1998,02:00,3.5,R,mgm-3,336,R,ugm-3,65,R,ugm-3,579,R,ugm-3
11-01-1998,03:00,2.4,R,mgm-3,208,R,ugm-3,65,R,ugm-3,382,R,ugm-3
11-01-1998,04:00,0.7,R,mgm-3,46,R,ugm-3,48,R,ugm-3,118,R,ugm-3
11-01-1998,05:00,0.7,R,mgm-3,45,R,ugm-3,44,R,ugm-3,113,R,ugm-3
11-01-1998,06:00,1.0,R,mgm-3,79,R,ugm-3,52,R,ugm-3,172,R,ugm-3
11-01-1998,07:00,1.7,R,mgm-3,163,R,ugm-3,65,R,ugm-3,313,R,ugm-3
11-01-1998,08:00,1.4,R,mgm-3,125,R,ugm-3,73,R,ugm-3,264,R,ugm-3
11-01-1998,09:00,1.2,R,mgm-3,85,R,ugm-3,63,R,ugm-3,193,R,ugm-3
11-01-1998,10:00,1.3,R,mgm-3,96,R,ugm-3,53,R,ugm-3,201,R,ugm-3
11-01-1998,11:00,2.4,R,mgm-3,161,R,ugm-3,65,R,ugm-3,311,R,ugm-3
11-01-1998,12:00,2.9,R,mgm-3,191,R,ugm-3,71,R,ugm-3,363,R,ugm-3
11-01-1998,13:00,2.4,R,mgm-3,160,R,ugm-3,59,R,ugm-3,304,R,ugm-3
11-01-1998,14:00,2.4,R,mgm-3,166,R,ugm-3,82,R,ugm-3,336,R,ugm-3
11-01-1998,15:00,4.1,R,mgm-3,283,R,ugm-3,74,R,ugm-3,506,R,ugm-3
11-01-1998,16:00,4.2,R,mgm-3,266,R,ugm-3,76,R,ugm-3,483,R,ugm-3
11-01-1998,17:00,3.2,R,mgm-3,208,R,ugm-3,73,R,ugm-3,390,R,ugm-3
11-01-1998,18:00,2.9,R,mgm-3,200,R,ugm-3,78,R,ugm-3,384,R,ugm-3
11-01-1998,19:00,1.4,R,mgm-3,96,R,ugm-3,57,R,ugm-3,204,R,ugm-3
11-01-1998,20:00,0.9,R,mgm-3,64,R,ugm-3,46,R,ugm-3,143,R,ugm-3
11-01-1998,21:00,1.0,R,mgm-3,69,R,ugm-3,53,R,ugm-3,159,R,ugm-3
11-01-1998,22:00,1.0,R,mgm-3,75,R,ugm-3,53,R,ugm-3,168,R,ugm-3
11-01-1998,23:00,1.0,R,mgm-3,74,R,ugm-3,46,R,ugm-3,159,R,ugm-3
11-01-1998,24:00,0.7,R,mgm-3,54,R,ugm-3,46,R,ugm-3,128,R,ugm-3
12-01-1998,01:00,0.3,R,mgm-3,23,R,ugm-3,31,R,ugm-3,65,R,ugm-3
12-01-1998,02:00,0.1,R,mgm-3,5,R,ugm-3,15,R,ugm-3,23,R,ugm-3
12-01-1998,03:00,0.1,R,mgm-3,5,R,ugm-3,15,R,ugm-3,23,R,ugm-3
12-01-1998,04:00,0.1,R,mgm-3,8,R,ugm-3,17,R,ugm-3,29,R,ugm-3
12-01-1998,05:00,0.2,R,mgm-3,16,R,ugm-3,23,R,ugm-3,48,R,ugm-3
12-01-1998,06:00,0.6,R,mgm-3,55,R,ugm-3,32,R,ugm-3,117,R,ugm-3
12-01-1998,07:00,1.4,R,mgm-3,141,R,ugm-3,57,R,ugm-3,273,R,ugm-3
12-01-1998,08:00,3.1,R,mgm-3,255,R,ugm-3,86,R,ugm-3,476,R,ugm-3
12-01-1998,09:00,5.3,R,mgm-3,369,R,ugm-3,78,R,ugm-3,642,R,ugm-3
12-01-1998,10:00,2.3,R,mgm-3,248,R,ugm-3,82,R,ugm-3,460,R,ugm-3
12-01-1998,11:00,1.7,R,mgm-3,204,R,ugm-3,63,R,ugm-3,374,R,ugm-3
12-01-1998,12:00,1.9,R,mgm-3,218,R,ugm-3,71,R,ugm-3,403,R,ugm-3
12-01-1998,13:00,1.6,R,mgm-3,181,R,ugm-3,73,R,ugm-3,350,R,ugm-3
12-01-1998,14:00,1.9,R,mgm-3,194,R,ugm-3,71,R,ugm-3,367,R,ugm-3
12-01-1998,15:00,3.1,R,mgm-3,319,R,ugm-3,61,R,ugm-3,548,R,ugm-3
12-01-1998,16:00,4.3,R,mgm-3,364,R,ugm-3,94,R,ugm-3,649,R,ugm-3
12-01-1998,17:00,5.3,R,mgm-3,364,R,ugm-3,90,R,ugm-3,646,R,ugm-3
12-01-1998,18:00,8.9,R,mgm-3,528,R,ugm-3,52,R,ugm-3,858,R,ugm-3
12-01-1998,19:00,4.6,R,mgm-3,323,R,ugm-3,73,R,ugm-3,565,R,ugm-3
12-01-1998,20:00,4.1,R,mgm-3,255,R,ugm-3,82,R,ugm-3,472,R,ugm-3
12-01-1998,21:00,2.6,R,mgm-3,170,R,ugm-3,52,R,ugm-3,311,R,ugm-3
12-01-1998,22:00,2.1,R,mgm-3,134,R,ugm-3,65,R,ugm-3,269,R,ugm-3
12-01-1998,23:00,1.2,R,mgm-3,84,R,ugm-3,52,R,ugm-3,180,R,ugm-3
12-01-1998,24:00,0.9,R,mgm-3,81,R,ugm-3,44,R,ugm-3,168,R,ugm-3
13-01-1998,01:00,0.7,R,mgm-3,68,R,ugm-3,32,R,ugm-3,136,R,ugm-3
13-01-1998,02:00,0.5,R,mgm-3,9,R,ugm-3,27,R,ugm-3,40,R,ugm-3
13-01-1998,03:00,0.2,R,mgm-3,5,R,ugm-3,23,R,ugm-3,31,R,ugm-3
13-01-1998,04:00,0.2,R,mgm-3,8,R,ugm-3,17,R,ugm-3,29,R,ugm-3
13-01-1998,05:00,0.3,R,mgm-3,8,R,ugm-3,23,R,ugm-3,34,R,ugm-3
13-01-1998,06:00,0.6,R,mgm-3,23,R,ugm-3,36,R,ugm-3,71,R,ugm-3
13-01-1998,07:00,0.9,R,mgm-3,51,R,ugm-3,48,R,ugm-3,126,R,ugm-3
13-01-1998,08:00,2.9,R,mgm-3,165,R,ugm-3,55,R,ugm-3,308,R,ugm-3
13-01-1998,09:00,5.0,R,mgm-3,275,R,ugm-3,78,R,ugm-3,499,R,ugm-3
13-01-1998,10:00,2.8,R,mgm-3,216,R,ugm-3,88,R,ugm-3,418,R,ugm-3
13-01-1998,11:00,2.1,R,mgm-3,193,R,ugm-3,76,R,ugm-3,371,R,ugm-3
13-01-1998,12:00,2.3,R,mgm-3,205,R,ugm-3,63,R,ugm-3,376,R,ugm-3
13-01-1998,13:00,2.8,R,mgm-3,216,R,ugm-3,65,R,ugm-3,395,R,ugm-3
13-01-1998,14:00,2.7,R,mgm-3,209,R,ugm-3,46,R,ugm-3,365,R,ugm-3
13-01-1998,15:00,3.1,R,mgm-3,244,R,ugm-3,74,R,ugm-3,447,R,ugm-3
13-01-1998,16:00,3.9,R,mgm-3,268,R,ugm-3,80,R,ugm-3,489,R,ugm-3
13-01-1998,17:00,3.8,R,mgm-3,226,R,ugm-3,74,R,ugm-3,420,R,ugm-3
13-01-1998,18:00,2.8,R,mgm-3,113,R,ugm-3,53,R,ugm-3,225,R,ugm-3
13-01-1998,19:00,3.0,R,mgm-3,134,R,ugm-3,53,R,ugm-3,258,R,ugm-3
13-01-1998,20:00,1.9,R,mgm-3,86,R,ugm-3,53,R,ugm-3,185,R,ugm-3
13-01-1998,21:00,1.2,R,mgm-3,50,R,ugm-3,34,R,ugm-3,111,R,ugm-3
13-01-1998,22:00,1.2,R,mgm-3,39,R,ugm-3,34,R,ugm-3,94,R,ugm-3
13-01-1998,23:00,1.2,R,mgm-3,49,R,ugm-3,34,R,ugm-3,109,R,ugm-3
13-01-1998,24:00,0.8,R,mgm-3,34,R,ugm-3,29,R,ugm-3,80,R,ugm-3
14-01-1998,01:00,0.6,R,mgm-3,25,R,ugm-3,15,R,ugm-3,53,R,ugm-3
14-01-1998,02:00,0.5,R,mgm-3,4,R,ugm-3,10,R,ugm-3,15,R,ugm-3
14-01-1998,03:00,0.5,R,mgm-3,5,R,ugm-3,13,R,ugm-3,21,R,ugm-3
14-01-1998,04:00,0.3,R,mgm-3,3,R,ugm-3,11,R,ugm-3,15,R,ugm-3
14-01-1998,05:00,0.3,R,mgm-3,1,R,ugm-3,11,R,ugm-3,13,R,ugm-3
14-01-1998,06:00,0.3,R,mgm-3,3,R,ugm-3,15,R,ugm-3,19,R,ugm-3
14-01-1998,07:00,0.5,R,mgm-3,15,R,ugm-3,25,R,ugm-3,48,R,ugm-3
14-01-1998,08:00,0.7,R,mgm-3,25,R,ugm-3,44,R,ugm-3,82,R,ugm-3
14-01-1998,09:00,1.0,R,mgm-3,34,R,ugm-3,50,R,ugm-3,101,R,ugm-3
14-01-1998,10:00,0.8,R,mgm-3,33,R,ugm-3,50,R,ugm-3,99,R,ugm-3
14-01-1998,11:00,0.7,R,mgm-3,28,R,ugm-3,42,R,ugm-3,84,R,ugm-3
14-01-1998,12:00,0.6,R,mgm-3,31,R,ugm-3,36,R,ugm-3,84,R,ugm-3
14-01-1998,13:00,0.7,R,mgm-3,24,R,ugm-3,38,R,ugm-3,74,R,ugm-3
14-01-1998,14:00,0.6,R,mgm-3,21,R,ugm-3,34,R,ugm-3,67,R,ugm-3
14-01-1998,15:00,0.6,R,mgm-3,23,R,ugm-3,38,R,ugm-3,73,R,ugm-3
14-01-1998,16:00,0.9,R,mgm-3,45,R,ugm-3,55,R,ugm-3,124,R,ugm-3
14-01-1998,17:00,1.2,R,mgm-3,54,R,ugm-3,65,R,ugm-3,147,R,ugm-3
14-01-1998,18:00,3.7,R,mgm-3,196,R,ugm-3,88,R,ugm-3,388,R,ugm-3
14-01-1998,19:00,3.7,R,mgm-3,185,R,ugm-3,82,R,ugm-3,365,R,ugm-3
14-01-1998,20:00,3.2,R,mgm-3,189,R,ugm-3,82,R,ugm-3,371,R,ugm-3
14-01-1998,21:00,1.6,R,mgm-3,100,R,ugm-3,67,R,ugm-3,220,R,ugm-3
14-01-1998,22:00,1.6,R,mgm-3,96,R,ugm-3,69,R,ugm-3,216,R,ugm-3
14-01-1998,23:00,0.9,R,mgm-3,55,R,ugm-3,55,R,ugm-3,139,R,ugm-3
14-01-1998,24:00,0.9,R,mgm-3,55,R,ugm-3,52,R,ugm-3,136,R,ugm-3
15-01-1998,01:00,0.5,R,mgm-3,35,R,ugm-3,34,R,ugm-3,88,R,ugm-3
15-01-1998,02:00,0.2,R,mgm-3,4,R,ugm-3,10,R,ugm-3,15,R,ugm-3
15-01-1998,03:00,0.2,R,mgm-3,5,R,ugm-3,6,R,ugm-3,13,R,ugm-3
15-01-1998,04:00,0.1,R,mgm-3,3,R,ugm-3,6,R,ugm-3,10,R,ugm-3
15-01-1998,05:00,0.2,R,mgm-3,4,R,ugm-3,8,R,ugm-3,13,R,ugm-3
15-01-1998,06:00,0.5,R,mgm-3,18,R,ugm-3,19,R,ugm-3,46,R,ugm-3
15-01-1998,07:00,0.8,R,mgm-3,40,R,ugm-3,32,R,ugm-3,94,R,ugm-3
15-01-1998,08:00,2.0,R,mgm-3,120,R,ugm-3,63,R,ugm-3,246,R,ugm-3
15-01-1998,09:00,3.2,R,mgm-3,184,R,ugm-3,74,R,ugm-3,355,R,ugm-3
15-01-1998,10:00,2.6,R,mgm-3,163,R,ugm-3,92,R,ugm-3,340,R,ugm-3
15-01-1998,11:00,2.0,R,mgm-3,138,R,ugm-3,84,R,ugm-3,294,R,ugm-3
15-01-1998,12:00,1.9,R,mgm-3,138,R,ugm-3,69,R,ugm-3,279,R,ugm-3
15-01-1998,13:00,1.5,R,mgm-3,108,R,ugm-3,67,R,ugm-3,231,R,ugm-3
15-01-1998,14:00,2.8,R,mgm-3,176,R,ugm-3,86,R,ugm-3,355,R,ugm-3
15-01-1998,15:00,2.7,R,mgm-3,195,R,ugm-3,94,R,ugm-3,392,R,ugm-3
15-01-1998,16:00,3.2,R,mgm-3,198,R,ugm-3,90,R,ugm-3,392,R,ugm-3
15-01-1998,17:00,2.4,R,mgm-3,128,R,ugm-3,88,R,ugm-3,283,R,ugm-3
15-01-1998,18:00,6.6,R,mgm-3,298,R,ugm-3,94,R,ugm-3,548,R,ugm-3
15-01-1998,19:00,4.5,R,mgm-3,248,R,ugm-3,80,R,ugm-3,458,R,ugm-3
15-01-1998,20:00,2.6,R,mgm-3,124,R,ugm-3,71,R,ugm-3,260,R,ugm-3
15-01-1998,21:00,2.1,R,mgm-3,105,R,ugm-3,69,R,ugm-3,229,R,ugm-3
15-01-1998,22:00,1.9,R,mgm-3,81,R,ugm-3,59,R,ugm-3,183,R,ugm-3
15-01-1998,23:00,1.0,R,mgm-3,54,R,ugm-3,52,R,ugm-3,134,R,ugm-3
15-01-1998,24:00,0.7,R,mgm-3,29,R,ugm-3,34,R,ugm-3,78,R,ugm-3
16-01-1998,01:00,0.5,R,mgm-3,18,R,ugm-3,27,R,ugm-3,53,R,ugm-3
16-01-1998,02:00,0.3,R,mgm-3,5,R,ugm-3,13,R,ugm-3,21,R,ugm-3
16-01-1998,03:00,0.3,R,mgm-3,5,R,ugm-3,10,R,ugm-3,17,R,ugm-3
16-01-1998,04:00,0.2,R,mgm-3,4,R,ugm-3,6,R,ugm-3,11,R,ugm-3
16-01-1998,05:00,0.2,R,mgm-3,4,R,ugm-3,8,R,ugm-3,13,R,ugm-3
16-01-1998,06:00,0.6,R,mgm-3,30,R,ugm-3,32,R,ugm-3,78,R,ugm-3
16-01-1998,07:00,1.5,R,mgm-3,123,R,ugm-3,73,R,ugm-3,260,R,ugm-3
16-01-1998,08:00,3.9,R,mgm-3,251,R,ugm-3,82,R,ugm-3,466,R,ugm-3
16-01-1998,09:00,2.0,R,mgm-3,84,R,ugm-3,67,R,ugm-3,195,R,ugm-3
16-01-1998,10:00,1.6,R,mgm-3,76,R,ugm-3,73,R,ugm-3,189,R,ugm-3
16-01-1998,11:00,1.3,R,mgm-3,73,R,ugm-3,71,R,ugm-3,181,R,ugm-3
16-01-1998,12:00,1.5,R,mgm-3,101,R,ugm-3,53,R,ugm-3,208,R,ugm-3
16-01-1998,13:00,1.4,R,mgm-3,96,R,ugm-3,57,R,ugm-3,204,R,ugm-3
16-01-1998,14:00,1.7,R,mgm-3,99,R,ugm-3,67,R,ugm-3,218,R,ugm-3
16-01-1998,15:00,1.6,R,mgm-3,94,R,ugm-3,61,R,ugm-3,204,R,ugm-3
16-01-1998,16:00,2.1,R,mgm-3,115,R,ugm-3,73,R,ugm-3,248,R,ugm-3
16-01-1998,17:00,2.3,R,mgm-3,115,R,ugm-3,69,R,ugm-3,244,R,ugm-3
16-01-1998,18:00,2.3,R,mgm-3,98,R,ugm-3,65,R,ugm-3,214,R,ugm-3
16-01-1998,19:00,2.8,R,mgm-3,125,R,ugm-3,82,R,ugm-3,273,R,ugm-3
16-01-1998,20:00,2.2,R,mgm-3,111,R,ugm-3,63,R,ugm-3,233,R,ugm-3
16-01-1998,21:00,1.7,R,mgm-3,90,R,ugm-3,73,R,ugm-3,210,R,ugm-3